EDT,Max TemperatureF,Mean TemperatureF,Min TemperatureF,Max Dew PointF,MeanDew PointF,Min DewpointF,Max Humidity, Mean Humidity, Min Humidity, Max Sea Level PressureIn, Mean Sea Level PressureIn, Min Sea Level PressureIn, Max VisibilityMiles, Mean VisibilityMiles, Min VisibilityMiles, Max Wind SpeedMPH, Mean Wind SpeedMPH, Max Gust SpeedMPH,PrecipitationIn, CloudCover, Events, WindDirDegrees
2014-5-1,73,62,51,59,49,36,100,68,35,29.87,29.81,29.74,10,8,2,18,4,24,0.01,5,Rain,276
2014-5-2,64,55,46,39,35,32,66,44,34,29.89,29.85,29.82,10,10,10,20,7,22,0.00,5,,280
2014-5-3,69,60,50,43,38,34,76,48,28,29.89,29.83,29.74,10,10,10,21,3,28,0.00,6,,242
2014-5-4,75,63,51,43,36,32,67,37,25,29.97,29.83,29.73,10,10,10,29,12,40,0.00,2,,273
2014-5-5,62,50,39,45,35,30,82,56,32,30.08,30.00,29.92,10,10,10,12,5,17,0.00,3,Rain-Thunderstorm,303
2014-5-6,73,60,48,48,43,36,88,56,27,30.04,29.96,29.91,10,10,7,13,2,,0.00,2,Thunderstorm,8
2014-5-7,64,55,46,54,45,36,94,71,42,30.27,30.14,30.05,10,10,2,12,3,21,0.18,3,Rain-Thunderstorm,65
2014-5-8,87,66,46,61,54,46,100,69,29,30.15,30.08,29.99,10,8,1,7,1,,0.00,0,,145
2014-5-9,82,68,55,64,60,55,100,72,45,30.11,30.02,29.92,10,8,0,16,3,23,0.00,2,Fog-Rain,153
2014-5-10,78,68,59,64,60,54,88,75,50,30.01,29.97,29.94,10,10,4,14,6,23,0.32,4,Rain-Thunderstorm,224
2014-5-11,80,68,57,57,51,43,94,57,29,30.16,30.09,29.99,10,10,10,10,5,,0.00,0,,230
2014-5-12,87,74,60,63,59,54,94,65,35,30.14,30.11,30.06,10,10,10,13,4,18,0.00,2,Rain,230
2014-5-13,89,76,62,66,63,59,100,79,40,30.16,30.11,30.07,10,10,5,17,3,24,0.11,2,Rain-Thunderstorm,175
2014-5-14,64,62,60,64,61,59,100,93,88,30.22,30.17,30.12,10,5,1,10,4,16,0.00,7,,89
2014-5-15,77,70,64,64,63,61,100,87,61,30.13,30.01,29.88,10,8,2,18,7,28,0.65,6,Rain,144
2014-5-16,68,60,53,64,47,39,100,66,40,29.98,29.89,29.82,10,9,2,21,9,31,2.42,7,Rain,308
2014-5-17,64,54,44,45,39,32,93,57,32,30.20,30.08,29.98,10,10,10,15,4,22,0.00,4,,297
2014-5-18,64,52,41,41,37,32,93,57,32,30.27,30.23,30.20,10,10,10,9,3,,0.00,2,,354
2014-5-19,71,53,35,43,37,32,100,58,23,30.32,30.25,30.18,10,10,10,9,1,,0.00,0,,243
2014-5-20,75,60,44,55,45,39,93,60,29,30.23,30.14,30.00,10,10,10,7,2,,0.00,2,Rain,168
2014-5-21,73,64,55,63,56,52,94,74,53,30.01,29.96,29.89,10,10,7,7,1,,0.00,4,Rain,32
2014-5-22,82,71,60,64,58,45,100,66,37,29.96,29.87,29.83,10,8,2,23,5,32,0.05,2,Rain-Thunderstorm,290
2014-5-23,77,62,48,52,46,41,87,53,32,30.08,29.98,29.93,10,10,10,18,8,32,0.00,1,,313
2014-5-24,77,62,46,52,46,43,93,57,34,30.15,30.10,30.06,10,10,7,15,6,22,0.00,3,,319
2014-5-25,78,64,50,52,48,41,94,59,26,30.20,30.15,30.11,10,10,10,8,1,,0.00,0,,212
2014-5-26,86,70,53,61,53,46,94,60,29,30.16,30.08,30.00,10,10,10,10,2,,0.00,0,,242
2014-5-27,89,76,62,68,62,55,94,67,38,30.02,29.96,29.88,10,10,2,14,5,25,0.19,3,Rain-Thunderstorm,231
2014-5-28,84,76,68,72,65,61,89,71,51,30.03,29.94,29.89,10,10,4,14,5,21,0.06,3,Rain-Thunderstorm,265
2014-5-29,68,62,57,64,56,54,100,90,82,30.17,30.13,30.04,10,8,2,12,6,,0.05,8,Rain,100
2014-5-30,71,63,55,57,55,54,100,83,53,30.17,30.13,30.10,10,7,1,7,2,,0.00,6,Rain,18
2014-5-31,77,64,50,57,48,41,100,60,29,30.25,30.20,30.13,10,9,2,8,3,,0.00,1,,21